Regional Weather Roundup
Issued by NWS Newport/Morehead, NC

Current Version | Previous Version | Text Only | Print | Product List | Glossary Off
Versions: 1 2 3 4 5 6 7 8 9 10 11 12 13 14 15 16 17 18 19 20 21 22 23 24 25 26 27 28 29 30 31 32 33 34 35 36 37 38 39 40 41 42 43 44 45 46 47 48 49 50
000 ASUS42 KMHX 231125 RWRMHX WEATHER ROUNDUP FOR EASTERN NORTH CAROLINA NATIONAL WEATHER SERVICE NEWPORT/MOREHEAD CITY NC 600 AM EST THU FEB 23 2017 NOTE: "FAIR" INDICATES FEW OR NO CLOUDS BELOW 12,000 FEET WITH NO SIGNIFICANT WEATHER AND/OR OBSTRUCTIONS TO VISIBILITY NCZ015>017-031-032-045>047-102-103-231200- NORTH COAST CITY SKY/WX TMP DP RH WIND PRES REMARKS EDENTON PTCLDY 53 50 91 CALM 29.95S ELIZABETH CITY CLOUDY 55 52 89 SE7 29.95R KITTY HAWK NOT AVBL MANTEO CLOUDY 54 52 95 CALM 29.96R $$ NCZ045>047-081-094-103-104-231200- CENTRAL COAST CITY SKY/WX TMP DP RH WIND PRES REMARKS FRISCO CLOUDY 64 58 80 S7 29.94R $$ NCZ095-097-098-100-101-231200- SOUTHERN COAST CITY SKY/WX TMP DP RH WIND PRES REMARKS BEAUFORT CLOUDY 56 53 90 E6 29.93R CEDAR ISLAND NOT AVBL JACKSONVILLE CLOUDY 56 54 93 N3 29.91S PINEY ISLAND CLOUDY N/A N/A N/A NE6 29.93R WILMINGTON MOCLDY 59 56 89 E5 29.90R $$ NCZ011>013-027>030-043-044-078>080-089-090>093-098-231200- COASTAL PLAIN CITY SKY/WX TMP DP RH WIND PRES REMARKS AHOSKIE N/A 51 50 97 CALM 29.95R CLINTON CLOUDY 55 54 97 CALM 29.92S ELIZABETHTOWN CLOUDY 54 54 99 CALM 29.91S GOLDSBORO CLOUDY 52 52 100 CALM 29.91R GREENVILLE CLOUDY 52 52 100 CALM 29.96R HAVELOCK NOT AVBL KENANSVILLE NOT AVBL KINSTON CLOUDY 51 50 96 CALM 29.94S NEW BERN CLOUDY 50 50 100 CALM 29.94R RICHLANDS CLOUDY 53 52 96 NE3 29.92S ROCKY MOUNT MOCLDY 52 51 97 CALM 29.93S WASHINGTON PTCLDY 51 50 95 CALM 29.94S WHITEVILLE CLOUDY 56 53 90 CALM 29.90R $$ AMZ130-135-150-152-154-156-158-170-250-252-270-ANZ085-086-088-633-658-670-231200- MARINE OBSERVATIONS STATION/POSITION TIME TEMP WIND PRES WAVE SWELL AIR SEA DIR/SP/G HT/PER HT/PER (UTC) (F) (DEG/KT/KT) (MB) (FT/S) (FT/S) CHESAPEAKE LIGHT NOT AVBL 64 E VA BEACH 1050 58 54 170/ 4/ 4 1014.0 3/10 3/10 DUCK 1100 58 48 300/ 3/ 3 1013.7 2 E DUCK 1100 49 N/A 3/10 2/11 OREGON INLET 1100 59 54 140/ 2/ 5 1014.0 13E OREGON INLT NOT AVBL HATTERAS CG 1100 65 60 150/ 6/ 8 1013.5 DIAMOND BUOY 1050 69 74 160/ 12/ 16 1013.6 4/ 9 2/ 9 CAPE LOOKOUT 1100 65 130/ 7/ 8 1013.0 BEAUFORT LAB 1100 57 54 CALM / 3 1012.4 30 SE NEW RVR IN 1108 68 120/ 10/ 14 1012.7 30 SE NEW RVR IN 1113 69 N/A 4/ 6 2/11 27 SE WRIGHTSVLE 1108 66 65 110/ 14/ 21 1011.7 5 SE WRIGHTSVLE 1108 61 58 70/ 8/ 14 1012.1 225 S CAPE HAT 1050 67 70 100/ 19/ 23 1011.6 6/ 6 2/ 9 41 SE CHARLESTON 1050 71 70 100/ 16/ 19 1009.1 6/ 7 3/11 $$

USA.gov is the U.S. government's official web portal to all federal, state and local government web resources and services.